Location: Long Geng
(2.6167°N, 114.1333°E)
Time: 11:16:12
(UTC+00:00)

Ariane H10 - Visible Passes

Search period start: 20 September 2021 00:00
Search period end: 30 September 2021 00:00
Orbit: 453 x 35428 km, 6.5° (Epoch: 19 September)

Date Brightness Start Highest point End Pass type
(mag) Time Alt. Az. Time Alt. Az. Time Alt. Az.
20 Sep 6.5 17:56:23 45° E 17:56:23 45° E 03:27:58 10° E visible
22 Sep 4.1 11:01:34 10° W 11:25:21 70° N 11:28:04 28° ENE visible
23 Sep 5.8 19:20:06 73° WSW 19:22:24 80° S 05:04:28 10° E visible
24 Sep 10.4 21:31:27 10° E 00:02:19 22° E 01:19:25 10° E visible
25 Sep 5.1 12:47:53 10° W 12:51:33 25° WNW 12:51:33 25° WNW visible
26 Sep 6.5 20:43:47 28° W 21:02:59 78° S 06:35:34 10° E visible
27 Sep 6.6 17:41:58 43° E 17:41:58 43° E 03:12:55 10° E visible
29 Sep 4.2 10:46:52 10° W 11:10:03 68° N 11:13:11 21° ENE visible
